Stanton, MN

1:50 AM CDT on April 25, 2017 (GMT -0500)
Stanton

Weather History for KSYN - November, 2013

Change the Weather History Date:

Tuesday, November 26, 2013

  Actual Average (KLVN) Record (KLVN)
Temperature  
Mean Temperature 22 °F -  
Max Temperature 32 °F 34 °F 60 °F (1998)
Min Temperature 13 °F 19 °F -19 °F (1977)
Degree Days  
Heating Degree Days 42    
Moisture  
Dew Point 8 °F    
Average Humidity 54    
Maximum Humidity 70    
Minimum Humidity 39    
Precipitation  
Precipitation 0.00 in - - ()
Sea Level Pressure  
Sea Level Pressure 30.21 in    
Wind  
Wind Speed 16 mph (NW)    
Max Wind Speed 24 mph    
Max Gust Speed 32 mph    
Visibility 10 miles    
Events      
Averages and records for this station are not official NWS values.
T = Trace of Precipitation, MM = Missing Value Source: NWS Daily Summary

Daily Weather History Graph

Daily Weather History Graph

Search for Another Location

Airport or City:

Trip Planner

Search our weather history database for the weather conditions in past years. The results will help you decide how hot, cold, wet, or windy it might be!

Date:

Astronomy

Nov. 26, 2013 Rise Set
Actual Time 7:22 AM CST 4:35 PM CST
Civil Twilight 6:50 AM CST 5:08 PM CST
Nautical Twilight 6:14 AM CST 5:44 PM CST
Astronomical Twilight 5:39 AM CST 6:19 PM CST
Moon 12:11 AM CST (11/26) 12:56 PM CST (11/26)
Length of Visible Light 10h 17m
Length of Day
9h 13m
Last Quarter, 41% of the Moon is Illuminated
Nov 26
Last Quarter
Dec 2
New
Dec 9
First Quarter
Dec 17
Full
Dec 25
Last Quarter

Hourly Weather History & Observations

Time (CST) Temp. Windchill Dew Point Humidity Pressure Visibility Wind Dir Wind Speed Gust Speed Precip Events Conditions
12:12 AM 32.0 °F 21.6 °F 21.7 °F 66% 30.06 in 10.0 mi WNW 15.0 mph - N/A   Overcast
12:32 AM 31.8 °F 21.4 °F 21.2 °F 65% 30.06 in 10.0 mi WNW 15.0 mph 25.3 mph N/A   Overcast
12:52 AM 31.5 °F 20.5 °F 21.0 °F 65% 30.06 in 10.0 mi WNW 16.1 mph - N/A   Overcast
1:12 AM 31.5 °F 20.9 °F 21.2 °F 66% 30.06 in 10.0 mi WNW 15.0 mph - N/A   Overcast
1:32 AM 31.1 °F 20.5 °F 21.0 °F 66% 30.06 in 10.0 mi WNW 15.0 mph 20.7 mph N/A   Overcast
1:52 AM 31.1 °F 19.7 °F 20.7 °F 65% 30.07 in 10.0 mi WNW 17.3 mph 21.9 mph N/A   Overcast
2:12 AM 30.6 °F 18.6 °F 20.1 °F 65% 30.07 in 10.0 mi WNW 18.4 mph 25.3 mph N/A   Overcast
2:32 AM 30.2 °F 18.1 °F 19.6 °F 65% 30.07 in 10.0 mi NW 18.4 mph 24.2 mph N/A   Overcast
2:52 AM 30.2 °F 18.5 °F 19.2 °F 64% 30.08 in 10.0 mi NW 17.3 mph 21.9 mph N/A   Overcast
3:12 AM 30.0 °F 18.3 °F 19.2 °F 64% 30.07 in 10.0 mi NW 17.3 mph 21.9 mph N/A   Overcast
3:32 AM 29.8 °F 18.9 °F 18.9 °F 64% 30.07 in 10.0 mi NW 15.0 mph 24.2 mph N/A   Overcast
3:52 AM 29.7 °F 19.1 °F 18.3 °F 63% 30.06 in 10.0 mi NW 13.8 mph - N/A   Overcast
4:12 AM 29.1 °F 17.1 °F 18.3 °F 64% 30.07 in 10.0 mi WNW 17.3 mph 21.9 mph N/A   Overcast
4:32 AM 27.9 °F 14.7 °F 15.4 °F 60% 30.08 in 10.0 mi WNW 19.6 mph 24.2 mph N/A   Overcast
4:52 AM 27.3 °F 13.3 °F 14.5 °F 59% 30.09 in 10.0 mi WNW 21.9 mph 27.6 mph N/A   Overcast
5:12 AM 26.4 °F 13.2 °F 12.0 °F 55% 30.10 in 10.0 mi NW 18.4 mph 25.3 mph N/A   Overcast
5:32 AM 25.9 °F 13.3 °F 11.3 °F 54% 30.11 in 10.0 mi WNW 16.1 mph 25.3 mph N/A   Overcast
5:52 AM 25.9 °F 13.8 °F 11.8 °F 55% 30.11 in 10.0 mi NW 15.0 mph 21.9 mph N/A   Overcast
6:12 AM 25.7 °F 11.9 °F 12.7 °F 58% 30.11 in 10.0 mi NW 19.6 mph - N/A   Overcast
6:32 AM 24.6 °F 12.7 °F 11.3 °F 57% 30.12 in 10.0 mi NW 13.8 mph 23.0 mph N/A   Mostly Cloudy
6:52 AM 23.0 °F 6.9 °F 8.6 °F 54% 30.13 in 10.0 mi NW 24.2 mph 29.9 mph N/A   Scattered Clouds
7:12 AM 21.7 °F 6.7 °F 5.9 °F 51% 30.14 in 10.0 mi NW 19.6 mph 28.8 mph N/A   Clear
7:32 AM 20.3 °F 3.7 °F 2.3 °F 46% 30.16 in 10.0 mi NW 23.0 mph 29.9 mph N/A   Clear
7:52 AM 19.9 °F 4.8 °F 2.8 °F 48% 30.17 in 10.0 mi NW 18.4 mph 23.0 mph N/A   Clear
8:12 AM 19.6 °F 3.5 °F 3.0 °F 49% 30.18 in 10.0 mi NW 20.7 mph 32.2 mph N/A   Clear
8:33 AM 19.8 °F 3.3 °F 1.9 °F 46% 30.19 in 10.0 mi NW 21.9 mph 31.1 mph N/A   Clear
8:52 AM 20.1 °F 5.0 °F 1.4 °F 44% 30.20 in 10.0 mi NNW 18.4 mph 26.5 mph N/A   Clear
9:12 AM 20.8 °F 5.1 °F 1.0 °F 42% 30.21 in 10.0 mi NNW 20.7 mph 28.8 mph N/A   Clear
9:32 AM 21.2 °F 5.2 °F 2.7 °F 45% 30.22 in 10.0 mi NNW 21.9 mph 27.6 mph N/A   Clear
9:52 AM 21.6 °F 8.2 °F 3.7 °F 46% 30.22 in 10.0 mi NW 15.0 mph - N/A   Clear
10:12 AM 22.1 °F 6.0 °F 3.6 °F 45% 30.23 in 10.0 mi NW 23.0 mph 26.5 mph N/A   Scattered Clouds
10:32 AM 22.5 °F 7.2 °F 3.4 °F 44% 30.23 in 10.0 mi NNW 20.7 mph 29.9 mph N/A   Mostly Cloudy
10:52 AM 22.1 °F 6.4 °F 4.1 °F 46% 30.23 in 10.0 mi NW 21.9 mph - N/A   Mostly Cloudy
11:12 AM 23.2 °F 8.6 °F 3.0 °F 42% 30.22 in 10.0 mi NNW 19.6 mph 27.6 mph N/A   Mostly Cloudy
11:32 AM 23.0 °F 8.0 °F 2.7 °F 42% 30.22 in 10.0 mi NNW 20.7 mph 24.2 mph N/A   Mostly Cloudy
11:52 AM 23.0 °F 8.0 °F 1.0 °F 39% 30.22 in 10.0 mi NW 20.7 mph 26.5 mph N/A   Scattered Clouds
12:12 PM 23.0 °F 9.2 °F 2.8 °F 42% 30.21 in 10.0 mi NW 17.3 mph 25.3 mph N/A   Scattered Clouds
12:32 PM 24.3 °F 9.3 °F 2.8 °F 40% 30.21 in 10.0 mi NW 21.9 mph 26.5 mph N/A   Mostly Cloudy
12:52 PM 22.8 °F 8.1 °F 3.0 °F 43% 30.21 in 10.0 mi NW 19.6 mph 27.6 mph N/A   Overcast
1:12 PM 23.9 °F 8.4 °F 3.9 °F 42% 30.21 in 10.0 mi NNW 23.0 mph 27.6 mph N/A   Overcast
1:32 PM 23.2 °F 8.2 °F 3.2 °F 42% 30.21 in 10.0 mi NNW 20.7 mph 26.5 mph N/A   Mostly Cloudy
1:52 PM 23.4 °F 8.8 °F 2.7 °F 41% 30.22 in 10.0 mi NNW 19.6 mph 27.6 mph N/A   Mostly Cloudy
2:12 PM 22.8 °F 10.4 °F 3.7 °F 44% 30.22 in 10.0 mi NW 13.8 mph 23.0 mph N/A   Mostly Cloudy
2:32 PM 23.2 °F 9.8 °F 2.8 °F 42% 30.21 in 10.0 mi NNW 16.1 mph 25.3 mph N/A   Mostly Cloudy
2:52 PM 23.0 °F 8.0 °F 3.7 °F 44% 30.23 in 10.0 mi NW 20.7 mph - N/A   Mostly Cloudy
3:12 PM 21.9 °F 8.2 °F 4.3 °F 47% 30.23 in 10.0 mi NW 16.1 mph 23.0 mph N/A   Mostly Cloudy
3:32 PM 21.9 °F 7.3 °F 4.5 °F 47% 30.24 in 10.0 mi NW 18.4 mph 21.9 mph N/A   Scattered Clouds
3:53 PM 21.2 °F 8.9 °F 4.1 °F 48% 30.25 in 10.0 mi NNW 12.7 mph 17.3 mph N/A   Scattered Clouds
4:12 PM 20.7 °F 7.1 °F 3.7 °F 48% 30.25 in 10.0 mi NW 15.0 mph 18.4 mph N/A   Scattered Clouds
4:32 PM 19.8 °F 7.7 °F 3.6 °F 50% 30.26 in 10.0 mi NNW 11.5 mph - N/A   Clear
4:52 PM 19.2 °F 7.0 °F 3.7 °F 51% 30.26 in 10.0 mi NNW 11.5 mph 16.1 mph N/A   Clear
5:12 PM 19.0 °F 6.1 °F 4.1 °F 52% 30.28 in 10.0 mi NNW 12.7 mph - N/A   Clear
5:32 PM 18.3 °F 7.3 °F 4.5 °F 55% 30.28 in 10.0 mi NW 9.2 mph - N/A   Clear
5:52 PM 18.1 °F 6.3 °F 4.8 °F 56% 30.29 in 10.0 mi NW 10.4 mph - N/A   Clear
6:12 PM 18.5 °F 6.1 °F 5.0 °F 56% 30.29 in 10.0 mi NNW 11.5 mph - N/A   Scattered Clouds
6:32 PM 19.2 °F 7.0 °F 5.0 °F 54% 30.30 in 10.0 mi NNW 11.5 mph - N/A   Mostly Cloudy
6:52 PM 19.0 °F 6.8 °F 5.0 °F 54% 30.30 in 10.0 mi North 11.5 mph - N/A   Overcast
7:12 PM 19.2 °F 6.4 °F 5.2 °F 54% 30.30 in 10.0 mi North 12.7 mph - N/A   Mostly Cloudy
7:32 PM 18.5 °F 4.9 °F 4.8 °F 55% 30.31 in 10.0 mi NNW 13.8 mph - N/A   Mostly Cloudy
7:52 PM 18.0 °F 5.4 °F 4.8 °F 57% 30.31 in 10.0 mi NNW 11.5 mph - N/A   Scattered Clouds
8:12 PM 17.4 °F 5.4 °F 4.8 °F 58% 30.32 in 10.0 mi NNW 10.4 mph 17.3 mph N/A   Clear
8:32 PM 17.1 °F 5.0 °F 4.8 °F 59% 30.32 in 10.0 mi NNW 10.4 mph - N/A   Clear
8:52 PM 16.7 °F 5.3 °F 5.0 °F 60% 30.32 in 10.0 mi NNW 9.2 mph - N/A   Scattered Clouds
9:12 PM 16.5 °F 6.0 °F 5.4 °F 62% 30.32 in 10.0 mi North 8.1 mph - N/A   Scattered Clouds
9:32 PM 16.7 °F 7.2 °F 6.6 °F 65% 30.33 in 10.0 mi North 6.9 mph - N/A   Scattered Clouds
9:52 PM 14.7 °F 5.9 °F 5.7 °F 68% 30.33 in 10.0 mi North 5.8 mph - N/A   Scattered Clouds
10:12 PM 15.1 °F 4.2 °F 5.9 °F 67% 30.33 in 10.0 mi North 8.1 mph - N/A   Clear
10:32 PM 15.6 °F 5.9 °F 5.9 °F 66% 30.33 in 10.0 mi North 6.9 mph - N/A   Clear
10:52 PM 14.7 °F 3.8 °F 5.9 °F 68% 30.33 in 10.0 mi NNW 8.1 mph - N/A   Clear
11:12 PM 14.5 °F 3.6 °F 5.7 °F 68% 30.34 in 10.0 mi North 8.1 mph - N/A   Clear
11:32 PM 13.6 °F 4.6 °F 5.2 °F 69% 30.34 in 10.0 mi North 5.8 mph - N/A   Clear
11:52 PM 13.8 °F 2.7 °F 5.7 °F 70% 30.34 in 10.0 mi NNW 8.1 mph - N/A   Clear